Temp
24 23 23 23 24 25 25 25 25 24 24 24 24 24 23 23 23 25 26 25 25 24 25 26 25 26 26 26 26 25 24 25 24 24 24 25 24 23 23 22 21 20 19 19 18 18 18 17 17 17 17 17 17 17 17 17 16 16 16 16 16 16 17 17 17 17 17 17 16 15 15 15 15 16 16 16 16 16 16 16 16 17 17 17 16 16
24 22 23 25 25 25 25 24 24 24 24 24 24 23 23 23 23 25 25 25 25 24 24 26 25 25 26 26 26 25 24 25 25 24 24 24 23 23 22 21 20 19 19 19 18 18 18 18 18 18 18 18 17 17 17 16 16 16 16 16 15 16 16 16 16 16 16 16 16 15 15 15 15 15 15 16 16 16 16 16 16 16 17 17 16 16
22 22 24 25 25 24 24 24 24 24 24 24 24 23 22 24 24 25 25 25 25 24 24 26 24 25 26 26 26 25 25 25 24 24 24 23 23 22 21 20 20 19 19 19 19 19 18 18 18 18 18 17 17 17 16 16 16 16 15 15 15 15 15 15 16 16 16 16 16 15 15 15 15 15 15 15 15 16 16 16 16 16 16 16 16 16
22 23 25 25 24 24 24 24 24 24 24 24 24 23 22 24 23 22 24 25 25 24 24 25 24 25 26 26 25 25 25 24 23 23 23 23 22 22 21 21 20 20 19 19 19 19 19 19 18 18 17 17 17 17 16 16 16 15 15 15 15 15 14 15 15 15 16 16 16 16 16 15 15 15 15 15 15 15 15 16 16 16 16 16 16 17
23 25 25 24 24 24 24 24 24 23 23 24 24 23 23 24 23 23 24 24 24 24 24 24 22 23 25 25 25 25 24 24 23 22 22 22 22 22 21 21 21 20 20 19 19 19 19 19 18 18 17 17 17 17 16 16 16 15 15 15 15 15 14 14 15 15 15 16 16 16 16 15 15 15 15 15 15 15 15 15 15 15 16 16 16 17
24 25 24 24 24 24 24 24 24 24 23 23 24 24 24 25 24 24 24 23 22 22 24 24 21 21 24 25 25 25 24 24 23 23 22 22 22 21 20 20 21 20 20 20 19 19 20 19 18 18 17 17 17 16 16 16 16 15 15 15 15 15 14 14 14 14 14 15 15 15 15 15 15 15 15 15 14 14 14 14 14 15 15 15 16 16
24 24 24 24 24 24 24 24 25 24 23 22 24 26 25 25 24 24 24 22 21 21 24 24 21 21 23 24 25 25 24 24 24 23 23 22 22 21 21 20 20 20 20 20 20 20 20 19 19 18 18 18 17 16 16 15 15 15 15 15 15 15 14 14 14 13 13 14 14 14 14 14 14 15 15 14 13 13 13 13 14 14 15 15 15 15
24 24 23 23 24 24 23 23 25 25 23 22 25 26 25 24 24 24 23 22 22 23 23 24 22 21 21 23 25 25 24 24 24 23 23 23 22 22 21 21 20 20 20 20 20 19 20 19 19 19 18 18 17 16 16 15 15 15 15 15 15 14 14 13 13 13 13 13 13 13 13 13 14 13 13 13 13 13 13 13 13 13 14 14 14 15
23 23 23 23 23 23 24 25 25 25 23 23 24 25 25 24 24 24 24 22 23 23 21 22 23 21 20 23 25 24 23 24 24 24 24 23 23 22 22 21 21 21 20 20 20 19 20 19 19 19 18 17 17 16 16 15 15 15 14 15 14 14 14 13 13 13 13 13 13 13 13 13 13 13 13 13 13 13 13 13 13 13 13 14 14 14
23 22 23 23 23 24 25 25 25 24 24 24 24 24 24 24 24 24 23 22 22 21 20 21 22 21 20 22 23 23 22 23 24 25 25 24 23 22 22 21 21 21 21 21 20 20 20 19 19 19 18 17 16 16 15 15 15 14 14 14 14 14 14 13 13 13 13 13 13 13 13 13 13 13 13 13 13 13 13 13 14 14 14 14 14 14
23 22 21 22 23 24 24 23 23 24 24 24 24 24 23 23 23 23 23 22 21 20 20 21 22 21 20 21 23 23 23 24 25 25 25 25 24 23 22 21 21 21 21 21 20 20 20 19 18 18 18 17 16 15 15 15 15 14 14 14 14 14 14 13 13 13 13 13 13 13 13 13 13 12 13 13 13 13 13 13 14 14 14 14 14 14
23 22 22 22 22 23 23 23 22 23 23 24 24 24 22 22 22 21 21 21 20 20 21 21 22 21 20 21 23 24 24 25 24 25 25 25 24 23 22 21 21 21 21 21 21 20 20 19 18 18 18 17 16 15 15 15 15 15 14 14 14 14 14 14 13 13 13 13 13 13 12 12 12 12 12 13 13 13 13 13 13 14 14 14 14 14
23 23 23 23 22 22 23 23 22 23 23 23 23 22 21 20 20 20 20 20 20 20 21 21 21 21 20 22 24 25 25 25 25 25 24 24 24 23 22 22 21 21 21 21 21 20 19 19 19 18 18 17 16 16 15 15 15 15 15 15 15 14 14 14 13 13 13 13 13 12 12 12 12 12 12 12 13 13 13 13 13 13 13 14 14 14
22 23 23 23 22 22 23 22 22 22 23 23 22 21 20 20 20 19 20 20 20 21 21 21 21 20 21 23 25 25 24 25 24 24 24 24 24 24 23 22 22 22 21 21 21 20 20 20 20 19 18 17 17 16 16 15 15 15 15 15 15 14 14 13 13 13 13 13 13 12 12 12 12 12 12 12 12 12 12 12 13 13 13 13 13 13
21 21 22 23 22 22 23 23 22 22 23 23 24 23 21 20 20 19 20 20 20 20 21 21 20 20 20 22 24 24 24 24 24 24 24 23 23 23 23 23 22 22 22 21 21 21 20 20 20 19 18 17 17 16 16 15 15 15 15 15 15 14 14 14 13 13 13 13 13 12 12 12 12 12 12 12 12 12 12 12 12 12 12 13 13 13
20 20 22 22 22 22 22 23 23 23 22 23 24 23 21 21 21 20 20 20 20 20 20 20 20 21 22 23 24 24 24 24 23 23 23 23 23 23 23 23 22 22 22 22 21 21 20 20 19 19 18 17 17 16 15 16 15 15 15 15 14 14 14 14 14 13 13 13 13 12 12 12 12 12 12 12 12 12 11 11 11 12 12 12 12 12
20 20 22 21 22 22 22 22 23 22 22 22 22 21 21 23 22 20 19 19 19 19 20 20 21 22 23 23 24 24 23 24 24 23 23 23 23 22 22 22 22 22 22 22 21 21 20 20 19 19 18 17 17 16 16 16 16 15 15 15 15 15 14 14 14 14 13 13 13 12 12 12 12 12 12 12 11 11 11 11 11 12 12 12 12 12
20 20 21 22 21 21 21 22 22 22 22 21 21 21 22 22 22 21 19 19 19 19 20 20 20 21 21 21 23 23 23 23 24 24 23 23 22 22 22 22 22 22 22 22 21 21 21 20 20 19 18 17 17 17 16 16 15 15 15 15 15 15 15 14 14 13 13 13 12 12 12 12 12 12 12 12 11 11 11 11 12 12 12 12 12 12
19 19 21 22 22 21 22 22 21 21 22 21 21 22 21 20 20 20 19 18 19 19 20 20 20 21 20 21 22 23 23 23 23 24 23 23 23 22 22 22 22 22 22 21 21 21 21 21 20 19 18 18 17 17 17 16 15 15 15 15 15 15 14 14 14 13 13 13 12 12 12 12 12 12 12 12 11 11 11 12 12 12 11 12 12 12
19 18 19 21 21 21 22 21 20 20 21 21 21 22 21 20 20 19 19 19 18 18 19 20 20 21 21 22 23 23 23 23 23 23 23 23 23 23 23 23 22 22 21 21 21 21 21 21 20 19 18 18 18 17 17 16 15 15 15 15 15 14 14 14 14 13 13 13 12 12 12 12 12 12 12 11 11 11 12 12 12 11 11 12 12 12
18 17 17 19 20 20 20 21 20 20 19 19 19 20 20 20 20 20 20 20 19 18 19 19 19 20 22 24 23 23 23 23 23 23 23 23 23 23 23 23 23 22 21 21 21 22 21 21 20 19 19 19 18 17 17 16 15 15 15 15 15 14 14 14 13 13 13 12 12 12 12 12 12 11 11 11 11 11 12 12 12 11 11 12 11 11
18 17 17 18 19 19 20 21 20 20 19 19 19 19 19 20 20 19 18 20 20 20 19 19 19 20 23 24 23 23 23 23 23 23 22 23 23 23 23 23 22 22 22 21 21 22 22 21 20 20 19 18 18 18 17 16 16 16 15 15 15 14 14 14 14 13 13 12 12 12 12 12 12 11 11 11 11 12 12 12 12 11 11 11 11 11
17 18 17 18 19 19 20 21 19 19 20 20 19 19 19 19 19 18 17 19 19 19 20 19 19 20 22 23 23 23 23 23 23 22 22 23 23 22 23 23 22 22 21 21 21 21 21 21 20 20 19 18 18 18 17 17 16 16 16 15 15 15 14 14 13 13 13 12 12 12 12 12 11 11 12 12 12 12 12 11 11 11 11 11 10 10
16 17 17 17 18 20 20 20 19 19 19 19 18 19 19 19 20 19 19 19 18 17 18 18 18 20 21 21 22 23 22 22 22 22 22 22 22 22 22 22 22 21 21 21 20 20 21 20 20 20 19 19 18 18 17 17 16 16 16 15 15 15 14 14 13 13 13 13 12 12 12 12 12 12 12 11 12 12 11 11 11 10 10 10 10 10
14 15 15 16 16 17 18 19 18 18 18 18 19 19 19 19 19 19 19 19 17 17 18 17 17 20 21 21 22 22 22 22 22 22 22 22 21 22 22 22 22 21 21 20 20 20 20 20 20 20 20 19 19 18 17 16 16 16 16 15 15 15 14 14 13 13 13 12 12 12 12 12 12 12 11 11 11 11 10 10 10 10 10 10 10 10
13 14 14 14 15 16 17 17 16 17 18 18 19 19 19 19 19 18 18 18 17 18 19 18 18 20 22 22 22 22 22 22 22 22 22 22 22 21 22 22 21 21 21 20 20 19 19 19 20 21 20 19 19 18 17 17 17 16 16 16 15 14 14 13 13 13 13 12 12 12 12 12 12 11 11 11 11 10 10 10 10 10 10 10 10 10
14 13 14 14 14 15 16 16 15 16 17 17 18 18 18 18 18 18 17 17 18 18 18 18 18 19 20 21 22 22 22 22 21 22 22 22 22 21 21 21 21 21 20 20 20 19 19 19 20 20 20 19 18 18 17 17 17 17 16 15 15 14 14 13 12 12 12 12 12 12 12 12 12 11 11 11 10 10 10 10 10 10 10 10 11 11
13 14 14 14 14 15 16 16 15 15 15 16 17 17 17 17 17 17 16 17 18 17 17 19 19 18 19 20 21 21 21 21 21 21 22 22 21 21 21 21 20 20 20 20 20 19 19 19 19 19 19 18 17 17 17 17 17 17 16 15 15 14 13 13 12 12 12 12 12 12 12 12 11 11 11 10 10 10 10 10 10 10 10 10 10 10
12 13 15 15 15 15 16 17 16 15 15 16 16 16 16 16 15 15 16 17 17 16 17 18 19 18 18 19 20 20 21 21 21 21 21 21 21 21 21 21 21 21 20 20 20 19 19 19 19 19 18 17 17 17 17 18 17 16 15 15 14 14 13 13 12 12 12 12 12 12 12 12 11 11 11 10 10 10 10 10 10 10 10 10 10 10
12 13 14 15 15 15 16 17 17 16 16 16 16 17 17 16 16 16 16 17 17 16 17 18 18 18 18 19 19 20 20 21 21 21 21 21 21 21 21 21 21 21 21 21 20 20 20 20 19 18 18 17 17 17 18 17 17 16 15 15 14 13 13 13 12 12 12 12 12 12 12 11 11 11 11 10 10 10 10 10 10 10 10 10 9 9
13 13 14 14 14 15 16 17 16 16 16 15 16 17 17 17 17 16 16 17 17 16 17 17 17 17 18 19 20 20 20 20 21 20 20 21 21 21 20 21 21 20 21 21 20 20 20 19 19 19 18 18 18 18 18 17 16 16 15 14 14 13 13 12 12 12 12 12 12 12 12 11 11 11 11 10 10 10 10 10 10 9 9 8 8 7
13 13 14 14 13 14 16 16 16 16 16 15 15 16 16 16 16 17 17 17 17 17 17 16 16 16 18 20 20 20 20 20 20 20 20 20 20 20 20 20 20 20 20 20 20 20 19 19 18 18 18 18 18 17 17 16 16 15 15 14 13 13 12 12 12 12 12 12 12 12 11 11 11 11 11 10 10 9 9 9 8 7 7 7 6 6
14 14 14 14 13 14 16 16 15 15 15 15 16 17 17 17 17 17 17 17 17 17 16 16 16 17 19 20 19 19 20 20 20 20 20 20 20 20 20 20 20 20 20 20 20 19 19 19 19 18 18 18 18 17 17 16 15 15 14 13 13 12 12 12 12 12 12 12 12 12 11 11 10 10 10 10 9 9 8 8 7 6 6 6 6 5
14 14 14 14 13 14 15 15 14 14 14 16 18 18 18 18 17 17 17 18 18 18 17 17 18 19 19 19 19 19 19 19 20 20 20 19 19 19 20 20 20 20 20 19 19 19 19 19 19 18 18 18 17 17 16 15 14 14 13 13 12 12 12 12 12 12 12 12 12 11 11 10 10 10 10 9 9 8 8 7 7 6 6 5 5 5
14 14 14 14 13 13 14 14 13 13 15 16 18 18 17 17 17 17 17 18 18 18 18 18 18 19 19 19 19 19 19 19 19 19 19 19 19 19 19 20 20 20 19 19 18 18 18 19 18 18 17 17 16 15 15 14 14 13 13 12 12 12 12 12 12 12 12 12 11 11 10 10 10 9 9 9 8 8 8 7 7 6 6 5 5 5
14 14 13 13 13 13 13 13 13 15 16 17 17 17 16 17 17 16 16 17 18 18 18 18 18 19 19 19 19 19 19 19 19 19 19 19 19 19 19 19 19 19 19 19 18 18 18 18 18 17 16 16 15 15 15 14 13 13 13 12 12 12 12 11 11 12 12 11 11 11 10 10 9 9 9 8 9 9 8 7 6 6 5 5 5 5
15 14 13 12 12 12 13 13 14 15 16 16 16 15 14 15 15 14 15 16 17 17 17 17 18 18 18 18 18 18 18 18 18 18 18 18 18 18 18 19 19 19 19 19 19 18 18 18 17 17 16 15 15 15 14 14 13 13 13 12 12 12 12 11 12 12 12 11 11 10 10 9 9 9 8 9 10 10 8 6 6 5 5 5 4 4
14 13 12 12 12 12 12 13 14 15 15 15 15 14 13 13 14 13 14 15 16 16 16 16 17 17 17 17 17 18 18 18 17 17 18 18 18 18 18 18 19 19 19 19 19 18 17 17 17 16 15 15 15 14 14 13 13 13 13 12 12 12 11 12 12 12 11 11 10 10 9 9 9 9 9 9 10 9 7 6 6 5 5 4 4 4
14 13 12 11 11 12 12 13 14 14 14 14 14 14 13 13 13 14 13 13 14 15 15 15 15 16 16 16 17 17 17 17 17 17 17 17 18 17 17 18 19 19 18 18 18 18 17 17 16 16 15 15 15 14 13 13 12 13 13 12 12 12 11 12 12 11 11 10 10 9 9 9 9 9 9 9 9 8 6 6 6 5 5 4 4 4
13 13 11 11 12 12 13 13 15 15 15 14 14 14 14 14 14 14 13 13 13 15 15 15 15 16 16 16 16 17 17 17 17 17 17 17 18 18 18 18 18 18 18 17 17 17 17 16 16 16 15 15 15 13 13 12 12 12 12 12 12 12 12 12 11 11 10 10 9 9 9 9 9 8 8 7 7 7 6 6 5 5 5 4 4 4
14 13 12 12 13 13 13 13 15 15 14 13 14 14 14 14 13 13 12 12 13 15 15 15 15 15 15 16 16 16 17 17 17 17 18 18 18 18 18 18 18 17 17 17 16 15 16 16 16 16 16 15 14 13 13 13 13 12 12 12 12 11 11 11 11 10 10 9 9 9 9 9 8 8 7 7 7 6 6 6 5 5 5 4 4 3
13 13 13 13 13 14 14 14 15 15 13 12 13 13 13 13 13 12 12 12 13 14 15 14 14 14 15 15 15 16 17 17 17 17 17 17 17 17 18 18 18 17 16 15 14 14 15 16 16 16 16 15 14 13 13 13 12 12 12 12 11 11 11 10 10 10 10 9 9 9 8 9 9 8 7 7 7 6 6 6 5 5 5 4 3 3
13 13 13 13 13 13 13 14 14 13 12 13 13 13 13 13 13 13 14 14 14 15 15 15 15 15 16 16 16 16 16 17 17 17 17 17 17 17 17 17 18 17 16 15 14 13 14 15 16 15 15 14 13 13 13 12 12 12 12 11 11 11 10 10 10 10 10 9 9 8 8 8 9 9 8 8 7 7 6 6 5 5 5 4 3 3
13 13 12 12 12 12 12 13 14 13 13 14 14 13 14 14 14 14 14 15 15 15 16 16 16 16 16 16 16 16 16 16 16 16 17 17 17 17 17 17 17 17 16 15 15 14 13 14 15 15 14 13 13 13 12 12 12 12 12 11 11 10 10 9 9 9 9 9 9 8 8 8 9 9 8 8 8 7 6 6 5 5 5 4 3 3
13 13 12 12 12 12 12 13 14 15 15 15 15 14 14 15 15 15 15 15 15 16 16 16 16 16 16 16 16 16 16 16 16 16 16 17 17 17 17 17 17 17 16 16 15 14 13 13 15 15 14 13 12 12 12 12 12 12 11 11 10 10 10 10 9 9 9 9 9 8 8 8 8 8 8 8 8 8 7 6 5 5 4 4 3 2
14 13 12 12 12 13 13 14 14 15 15 16 15 15 15 15 15 16 15 15 16 16 16 16 16 16 16 16 15 16 16 16 16 16 16 16 16 17 17 17 17 17 16 15 15 14 13 13 14 14 14 13 12 12 12 12 12 12 11 11 10 10 10 9 9 9 9 9 9 8 8 8 9 8 8 8 7 7 8 7 6 5 4 3 2 2
14 13 12 12 12 12 12 14 15 15 15 15 16 16 16 16 16 16 15 15 16 16 16 16 16 16 16 15 15 15 16 16 16 16 16 16 16 16 17 17 17 17 16 15 14 13 13 14 14 14 14 13 12 12 12 11 11 11 11 10 10 10 9 9 9 9 9 9 9 9 9 8 8 7 8 8 7 7 7 7 6 5 4 2 1 1
13 11 11 12 12 12 13 14 15 15 15 16 15 15 16 16 16 16 16 16 16 16 16 16 16 16 15 15 16 15 15 16 16 16 16 16 16 16 16 16 17 17 15 14 13 13 13 14 14 14 14 13 12 12 12 11 11 11 11 10 10 9 9 9 9 9 9 9 9 9 9 8 8 7 8 8 7 7 7 6 6 5 3 1 -0 -0
13 12 11 11 11 12 13 14 14 14 15 16 16 15 16 15 15 15 15 15 16 15 16 16 16 16 16 15 15 15 15 15 15 16 16 16 16 16 16 16 17 16 15 13 12 12 13 14 14 14 14 14 13 12 12 11 11 11 10 10 10 9 9 9 8 8 9 9 9 9 9 8 8 8 8 8 8 7 7 5 4 4 3 1 -1 -2
13 12 12 11 10 11 13 14 14 13 13 14 15 15 15 15 15 15 15 15 15 15 15 15 15 16 16 16 15 15 15 15 15 15 15 15 16 16 16 16 16 15 14 13 12 12 12 13 13 13 14 14 13 12 12 11 11 11 10 10 10 9 9 9 9 9 9 9 9 9 8 8 8 8 8 8 8 8 7 5 3 3 3 1 -1 -2
13 13 12 11 11 12 13 14 14 13 13 14 15 15 15 15 15 15 15 15 15 15 15 15 15 15 15 16 16 16 15 15 15 15 15 15 16 16 16 16 15 15 14 13 12 12 12 12 12 13 13 14 13 12 12 12 11 11 10 10 10 9 9 9 9 9 10 10 9 8 7 8 8 8 8 8 8 8 7 6 4 2 2 2 0 -1
Height
785 790 791 788 785 781 782 781 781 783 784 784 785 785 785 785 783 777 778 779 779 785 780 775 777 776 775 773 772 778 779 780 781 782 782 781 783 786 787 790 792 795 798 800 801 801 802 803 803 804 805 806 807 807 807 807 808 807 807 807 808 809 809 809 809 809 809 809 809 809 808 808 807 807 806 806 807 807 807 808 807 807 807 808 809 809
788 794 788 781 779 779 782 784 785 787 786 786 786 786 785 785 782 775 778 779 778 785 780 773 779 778 774 773 772 776 779 779 779 781 783 782 784 786 787 791 793 796 798 800 802 802 803 804 804 805 806 807 808 808 809 809 809 809 809 810 810 811 811 811 810 810 810 809 809 809 809 808 808 807 807 806 806 806 807 807 807 807 806 807 807 807
793 792 782 777 779 782 785 785 787 787 787 787 784 786 786 780 779 777 776 777 779 784 779 773 780 776 769 771 772 774 776 777 778 779 781 782 785 787 788 792 793 795 798 799 801 802 803 804 805 806 807 808 808 809 810 810 811 811 811 812 812 813 812 812 812 811 810 810 809 809 808 808 807 807 806 806 806 805 805 805 806 806 806 806 806 805
792 783 776 778 781 785 787 786 788 788 787 786 782 786 784 776 784 784 775 777 780 781 778 775 779 774 767 770 772 773 774 776 779 780 780 782 785 787 787 790 792 794 796 798 800 801 802 804 804 806 807 808 810 811 811 812 812 812 813 814 814 814 813 813 812 812 811 810 809 808 807 807 806 806 806 805 805 804 804 803 804 804 805 805 805 804
784 775 775 781 783 784 786 786 788 788 786 783 780 784 781 774 783 784 776 780 780 778 778 779 784 776 766 770 770 770 775 776 779 780 781 783 783 786 788 789 791 792 794 796 798 800 801 803 804 806 808 809 810 811 811 812 813 813 814 815 815 815 814 814 813 812 812 811 810 809 807 806 806 805 805 804 803 802 802 801 801 802 802 803 803 803
781 775 778 782 783 783 785 785 783 785 784 780 777 778 778 775 779 781 779 784 786 784 777 780 795 784 763 767 769 768 775 775 776 779 780 782 783 786 789 789 790 792 793 795 796 798 800 802 804 806 807 809 809 810 811 812 813 814 815 815 815 815 815 814 814 813 812 812 811 810 809 807 806 805 804 803 802 801 800 799 799 799 799 799 800 801
778 776 778 781 782 782 784 783 778 779 784 780 770 770 775 776 780 782 781 786 791 785 775 778 796 790 770 767 766 765 771 771 773 777 777 778 781 783 786 788 790 791 792 794 795 797 799 801 804 805 806 808 809 810 812 813 814 814 815 815 815 815 814 814 814 813 813 812 812 811 810 809 808 806 804 803 802 800 799 798 797 796 796 796 797 797
777 779 781 781 781 782 784 781 774 776 783 779 768 769 775 777 780 782 780 785 782 775 774 775 784 792 783 769 761 763 770 769 771 775 774 775 778 779 782 785 787 789 791 793 795 796 798 801 802 803 805 807 809 810 811 813 813 813 814 814 814 814 814 814 814 813 813 813 812 811 811 810 809 807 805 803 801 800 798 797 796 795 794 793 793 794
776 781 782 781 783 782 778 772 769 774 780 776 771 773 775 776 779 778 778 780 775 777 786 777 776 794 789 765 759 767 771 770 769 769 770 771 774 777 779 783 785 787 789 791 793 796 797 800 801 803 805 807 808 809 810 811 812 812 812 813 813 813 813 813 813 813 812 812 812 811 811 810 809 807 805 803 801 799 797 795 794 793 792 791 791 791
778 781 780 781 783 778 772 769 770 775 777 773 773 776 775 778 779 779 781 779 778 789 796 781 775 791 788 764 761 771 773 769 766 763 763 766 770 775 777 781 783 785 787 789 791 794 797 799 801 803 804 805 805 807 809 810 810 811 811 812 813 812 813 813 812 812 812 812 811 811 811 810 809 808 806 804 802 800 798 795 793 791 790 790 789 789
776 780 782 782 781 775 773 776 776 776 776 774 776 777 779 781 779 782 782 781 791 798 790 776 771 785 791 771 759 767 769 764 761 760 760 762 766 772 776 779 781 782 785 787 789 793 796 798 801 802 802 802 804 806 808 809 810 811 811 812 812 812 813 813 812 812 811 811 811 810 810 809 809 808 806 805 803 801 799 796 794 792 790 789 788 787
775 781 781 777 778 777 777 779 779 777 776 776 776 777 783 787 786 790 787 790 807 802 780 773 772 783 793 775 758 759 759 759 761 760 760 761 764 770 773 776 778 780 783 785 788 791 794 797 799 799 799 800 804 806 807 808 809 810 811 811 812 812 812 812 812 812 811 810 810 809 809 808 807 807 805 804 803 801 799 797 795 793 791 789 787 786
775 774 774 775 776 777 778 779 780 780 778 778 777 780 792 797 799 804 799 798 804 790 773 775 780 786 785 767 755 755 754 755 758 758 760 761 763 766 770 773 775 777 780 782 785 788 791 794 795 796 797 800 803 805 806 808 808 809 810 810 811 811 812 812 812 811 810 810 809 808 808 807 806 805 804 803 801 800 799 797 796 794 792 790 788 787
779 772 772 776 777 775 777 779 781 781 779 779 778 782 795 801 807 813 805 798 794 782 772 776 785 788 777 760 752 753 755 756 757 758 760 762 763 764 766 770 773 774 777 779 782 785 788 790 792 793 796 799 802 804 805 806 807 808 809 809 810 810 811 811 811 811 810 809 809 808 807 806 805 804 803 801 800 798 797 796 795 793 792 790 789 787
789 786 776 775 777 775 775 774 775 776 774 774 769 774 787 791 800 808 802 797 794 784 778 782 789 785 774 765 757 754 757 757 758 759 760 763 765 764 764 767 771 773 775 777 779 782 784 786 789 792 795 798 800 802 804 805 806 807 808 808 809 809 810 810 810 810 809 809 808 807 806 805 804 802 801 799 798 797 796 794 793 791 790 789 787 786
793 790 774 774 775 773 776 773 771 775 777 773 767 775 784 779 784 795 796 795 796 793 788 784 782 770 759 757 753 753 757 755 758 759 759 763 763 764 766 766 769 772 772 774 777 779 782 785 787 790 794 797 799 801 802 804 805 806 807 807 808 809 809 809 809 809 808 808 807 806 805 804 802 801 799 798 796 795 794 792 791 789 788 786 785 783
796 789 775 776 777 773 777 775 771 778 782 780 779 782 778 769 775 791 799 797 800 804 792 779 774 763 755 754 752 755 757 754 756 758 758 761 762 764 766 766 767 769 770 772 774 777 780 783 786 789 792 795 797 799 801 802 804 804 805 806 807 807 807 807 807 807 807 806 806 805 804 803 801 800 798 796 795 793 792 791 789 788 786 784 783 781
796 792 778 776 780 777 776 775 773 775 777 782 787 780 773 773 776 787 801 802 801 803 788 773 775 771 766 764 756 756 759 755 754 755 757 760 762 763 764 765 766 766 768 770 772 775 778 781 785 788 791 793 795 798 799 801 803 803 805 805 806 806 806 806 806 805 805 805 804 804 803 802 800 799 797 795 793 792 790 789 788 786 785 783 781 779
795 796 783 774 779 778 773 777 782 780 775 778 781 774 779 793 792 791 803 805 801 802 790 776 771 769 767 763 754 754 758 756 754 754 756 757 758 761 761 762 764 764 767 769 770 773 775 778 783 786 789 792 794 796 798 800 801 802 804 804 805 805 805 805 804 804 804 803 803 802 801 800 799 798 796 794 793 791 789 787 786 785 783 782 780 778
798 803 796 781 778 779 776 779 786 787 781 778 778 775 778 788 791 792 799 801 801 801 794 783 774 766 760 754 752 755 755 755 756 756 756 755 755 758 759 760 762 763 766 766 767 770 772 776 780 784 787 789 792 795 796 798 800 801 802 803 804 805 804 804 804 803 803 802 802 801 800 799 797 796 795 793 792 790 788 786 784 783 782 780 778 776
801 810 809 791 784 788 786 782 783 788 790 790 791 787 784 782 783 787 788 786 793 798 795 792 784 766 750 746 750 753 752 754 756 756 756 756 755 756 757 758 759 761 763 764 765 766 770 774 778 781 785 788 790 793 794 797 798 799 801 802 803 803 803 803 803 803 802 801 801 800 798 797 796 794 793 792 790 789 787 785 783 782 779 777 776 774
800 805 806 798 793 793 787 779 780 785 788 792 793 791 791 788 787 795 795 779 777 785 786 789 788 767 746 745 750 750 751 753 754 755 756 756 755 756 756 757 758 759 761 763 764 765 768 772 775 779 783 786 788 790 792 794 796 797 799 800 801 802 802 802 802 801 801 800 800 799 797 796 794 793 791 789 788 786 785 783 782 780 778 775 773 771
803 801 802 799 791 785 779 777 781 785 783 785 789 787 787 788 788 798 802 788 782 785 780 782 787 769 748 747 750 749 751 753 754 756 756 755 755 756 756 756 757 758 760 761 763 764 767 770 773 777 780 783 786 787 790 792 793 795 797 798 799 800 800 800 800 800 799 798 798 797 796 794 792 791 789 787 785 784 782 781 779 778 776 774 772 770
808 804 804 801 790 780 777 776 780 783 785 788 789 786 786 786 783 785 788 788 793 797 791 792 792 772 753 752 752 751 753 754 755 756 756 756 756 756 756 756 756 758 759 761 762 764 766 768 771 774 777 780 783 785 787 789 791 793 795 796 797 798 798 798 798 798 797 796 796 795 794 792 790 789 787 785 783 781 780 778 777 775 773 772 770 768
814 810 809 809 803 796 788 785 786 785 787 788 784 781 782 782 782 783 783 786 794 793 789 793 790 769 754 754 753 753 755 754 754 754 754 756 756 756 755 754 755 757 758 759 761 763 765 766 768 771 774 776 779 782 785 787 789 791 792 794 795 795 796 796 796 796 795 794 794 792 791 790 788 786 785 783 781 779 778 776 774 773 771 769 768 766
817 817 815 813 811 806 799 797 797 791 786 784 781 781 782 781 784 787 787 790 792 785 780 785 783 766 753 751 752 752 754 755 753 752 752 752 754 755 754 753 754 755 756 758 760 761 763 764 765 768 771 773 776 779 782 784 786 788 790 791 793 793 793 793 793 793 792 792 791 789 788 786 785 784 782 780 779 777 775 774 772 770 768 767 765 763
814 815 814 813 810 803 798 799 800 796 793 789 785 784 784 783 783 785 788 789 784 782 781 778 777 772 761 754 752 751 751 754 754 752 751 750 751 753 753 753 753 754 755 756 757 759 761 762 763 765 768 771 774 777 779 781 783 785 787 789 790 790 791 791 791 790 789 788 787 786 784 783 782 781 779 778 776 774 773 771 769 768 766 764 762 761
815 813 807 807 807 799 794 794 797 801 801 795 791 789 787 788 789 790 790 783 778 784 784 771 768 773 767 759 757 753 752 754 754 751 750 750 751 751 751 752 752 753 753 754 755 757 758 760 761 763 767 770 772 775 777 779 781 783 785 787 787 788 788 788 788 787 786 785 783 782 781 780 779 778 776 775 773 772 770 768 767 766 764 762 761 759
820 816 804 801 802 797 792 790 792 796 796 793 792 790 789 792 795 794 791 783 780 786 782 769 767 771 768 762 760 757 755 755 753 750 750 750 750 750 750 750 750 750 751 752 753 754 755 757 759 762 766 768 771 773 775 777 779 781 783 785 785 786 786 786 785 784 783 781 780 779 779 778 777 775 774 772 771 769 768 767 766 764 762 761 759 758
817 813 804 802 801 797 792 788 788 792 793 791 788 786 785 786 787 787 786 782 781 781 775 770 772 771 766 763 760 756 754 752 749 749 750 749 748 748 749 749 749 749 749 749 750 751 753 755 757 761 764 766 769 771 773 775 778 780 782 783 783 784 784 784 783 782 781 780 778 778 777 776 775 773 771 770 769 768 767 765 764 762 761 759 758 757
814 809 803 803 803 797 789 786 787 790 791 790 787 782 780 780 780 781 780 778 779 778 772 772 776 772 763 758 756 754 752 749 749 750 750 748 748 748 749 748 748 749 748 748 749 750 751 754 756 759 762 765 768 770 772 774 777 778 780 781 782 783 782 782 781 780 779 778 777 777 776 774 773 771 770 769 767 766 765 764 763 761 760 758 757 756
811 808 802 804 807 798 787 786 788 787 788 790 786 780 777 778 777 775 773 772 773 774 774 777 779 772 760 755 755 753 750 750 751 750 750 749 748 749 749 748 747 748 748 748 750 751 752 754 756 759 761 764 767 769 771 774 776 777 779 780 781 781 781 781 780 779 778 777 776 776 774 773 772 770 769 768 766 765 764 763 762 760 759 757 756 754
804 805 804 806 808 799 788 788 790 791 793 788 776 770 770 771 771 769 767 766 766 770 776 777 771 763 756 754 756 754 752 751 751 749 750 750 749 749 749 748 747 748 749 749 750 751 753 754 756 759 762 764 766 769 771 773 775 777 778 779 780 780 780 779 779 778 777 776 775 775 773 772 771 769 768 767 766 765 764 762 761 759 758 756 754 753
802 804 803 803 805 799 789 790 796 798 795 780 763 760 764 765 767 769 766 763 762 764 767 765 760 756 754 754 755 755 753 751 750 749 750 750 750 749 748 748 748 748 749 750 751 752 753 755 757 760 762 764 766 769 771 773 775 776 777 778 779 779 779 778 778 777 776 775 775 774 773 772 770 769 768 767 765 764 763 762 760 758 757 755 752 750
805 804 802 801 803 799 793 797 803 796 785 772 762 762 765 763 765 768 765 761 760 761 761 760 757 755 753 753 753 753 753 751 750 749 749 749 749 749 748 748 748 748 750 751 752 753 754 756 758 760 762 765 767 769 771 773 774 775 777 777 777 778 778 777 777 776 775 774 774 773 772 771 770 768 767 766 765 764 762 761 759 757 755 753 751 748
802 803 804 803 803 800 797 801 799 783 770 766 765 766 768 767 767 770 769 763 760 760 760 759 757 755 754 754 753 753 753 752 749 748 749 750 750 750 750 749 748 749 750 751 752 753 755 756 758 761 763 765 767 769 770 772 773 774 775 776 776 777 777 777 776 775 774 774 774 773 771 770 769 768 767 766 765 763 761 760 758 756 754 751 749 747
797 801 805 805 804 803 800 795 788 776 769 768 769 772 776 775 773 776 775 767 762 761 761 760 758 758 757 756 755 754 753 753 752 751 750 751 752 752 751 751 751 751 751 752 753 754 755 757 758 761 763 765 766 768 769 771 772 773 774 775 776 776 776 776 775 774 774 774 773 772 771 770 769 768 768 766 764 762 761 759 757 755 753 751 748 746
798 802 806 808 807 806 803 795 787 780 777 776 775 777 779 778 777 779 780 774 767 765 766 764 763 763 762 760 759 756 754 755 756 754 752 752 753 753 753 752 752 752 752 753 753 754 755 757 758 760 762 764 765 767 768 770 772 772 773 774 774 775 775 775 774 773 773 773 773 772 771 770 769 769 768 766 764 762 761 759 757 755 753 750 748 745
798 801 808 812 808 803 800 795 787 781 778 777 776 776 778 778 778 778 779 778 773 770 769 769 767 766 764 763 761 759 758 759 757 755 755 755 753 754 754 753 752 752 753 754 754 755 756 757 758 760 761 763 764 766 767 769 771 772 772 773 774 774 774 773 773 773 773 773 772 772 771 770 770 769 767 765 764 762 761 759 757 754 752 750 748 745
798 800 807 810 804 798 795 789 780 775 775 776 775 776 777 777 778 779 780 779 775 772 769 768 768 767 764 763 762 761 760 759 755 753 754 754 753 753 753 753 753 753 754 754 755 756 756 757 758 759 760 761 763 765 766 768 770 771 771 772 773 773 773 773 773 773 773 773 772 771 771 770 769 768 767 766 764 762 760 758 756 754 752 750 747 744
795 797 801 800 795 792 792 788 778 773 777 779 778 778 777 777 780 783 783 781 777 772 768 768 770 769 766 765 764 762 759 756 754 753 753 752 752 752 751 752 752 752 753 754 755 756 757 757 757 758 758 760 761 763 765 767 768 770 771 771 772 772 772 772 773 773 773 772 771 771 770 769 768 768 767 766 764 762 760 758 756 754 751 749 746 744
795 794 791 791 790 786 785 783 776 774 780 783 781 780 781 781 782 781 780 779 776 772 769 770 771 770 767 765 764 761 758 755 754 753 752 752 751 751 750 751 750 751 752 753 753 755 756 756 756 757 757 759 760 762 764 766 767 768 769 770 771 771 771 772 772 772 772 771 770 770 769 768 767 767 766 765 763 761 760 758 756 754 751 749 746 743
796 795 789 788 790 789 786 783 780 781 784 782 780 780 781 780 779 776 774 773 770 768 767 766 765 764 763 762 761 759 757 755 754 753 752 751 750 750 750 750 749 749 750 751 751 751 753 754 755 755 756 758 759 761 762 764 766 767 768 769 769 770 770 771 771 771 771 770 770 769 769 767 765 765 764 763 762 761 759 757 755 753 751 748 746 743
792 795 794 793 795 796 793 785 779 780 779 776 777 778 776 774 773 772 772 769 766 765 763 761 759 759 758 758 758 757 756 755 753 752 751 750 749 749 748 748 748 747 747 748 748 748 749 751 752 753 755 757 758 759 761 762 764 765 767 768 768 769 769 770 770 770 770 769 769 768 768 767 765 764 763 761 760 759 758 756 755 753 751 748 746 743
792 793 797 797 794 794 791 782 775 774 771 769 773 774 772 770 769 768 768 766 763 762 760 758 758 757 756 757 756 755 754 752 751 750 749 748 747 747 747 746 746 745 744 745 745 746 747 749 750 751 753 755 756 758 759 761 762 764 765 766 767 768 768 768 769 769 768 768 767 767 767 766 764 763 762 761 759 757 756 755 754 752 750 748 746 743
788 791 796 796 791 788 785 778 773 772 769 767 768 768 767 767 765 764 764 763 760 759 758 757 757 756 755 755 755 753 752 750 749 749 747 746 746 744 744 744 743 742 742 743 744 744 746 748 749 749 751 753 755 756 757 759 761 762 763 765 766 767 767 767 767 767 767 767 766 766 766 764 763 762 761 760 759 756 755 754 753 752 751 749 746 744
785 791 794 793 791 789 783 775 771 771 769 766 766 765 763 763 762 762 762 761 759 758 757 756 756 755 754 754 752 751 750 748 747 747 745 745 744 742 741 741 740 740 741 742 743 743 745 746 747 747 749 751 753 754 756 757 759 760 762 763 764 765 766 766 766 766 765 765 765 764 764 763 762 761 759 758 757 756 754 753 752 751 751 749 747 744
789 796 796 791 789 787 781 773 770 769 766 764 765 764 762 762 761 760 760 758 757 756 755 754 754 753 752 751 749 749 748 746 746 745 743 742 741 740 739 739 738 738 739 741 742 742 743 743 744 745 747 749 750 752 754 755 757 759 761 762 763 764 764 764 765 765 764 764 764 763 762 762 761 759 758 757 756 755 754 753 752 751 751 750 749 746
788 793 793 792 791 785 777 771 769 767 764 762 762 762 761 762 761 759 758 756 755 754 753 751 751 750 749 748 747 747 746 745 743 742 741 740 739 738 737 737 736 737 738 740 741 741 742 742 742 743 745 746 748 750 752 754 756 757 759 760 761 762 763 763 763 763 763 763 762 761 761 761 759 758 757 756 755 754 753 753 752 752 751 751 749 747
786 787 789 794 796 787 777 771 771 771 768 763 762 761 760 760 759 758 756 754 752 751 750 749 748 747 746 746 745 744 744 743 742 741 740 738 737 736 736 735 735 736 737 739 740 740 741 741 741 742 743 744 746 748 750 752 754 755 757 758 759 760 761 761 761 761 761 761 760 760 760 760 758 757 756 755 754 753 752 751 751 750 751 750 749 747
782 784 787 792 791 783 775 772 772 772 768 763 761 760 758 758 758 756 754 752 750 749 748 747 746 745 744 743 742 742 742 741 740 739 737 736 734 734 733 734 734 735 736 737 738 738 739 739 740 740 741 742 744 746 748 750 751 753 755 756 757 758 759 759 760 759 758 758 758 759 760 759 757 756 755 754 754 753 751 750 749 749 749 749 749 747
Wind_Speed
3 5 6 6 6 7 6 5 3 2 2 3 4 5 5 5 5 4 2 2 0 6 8 8 7 6 7 6 5 5 3 5 5 5 5 5 6 6 8 9 10 11 10 10 10 10 11 11 12 12 13 14 14 14 14 14 14 15 14 15 15 14 12 11 10 10 9 8 7 6 5 4 3 3 3 4 4 4 5 6 8 10 12 12 11 12
3 6 6 5 3 2 3 3 2 3 5 6 6 6 5 7 6 3 2 1 1 6 7 6 7 9 9 7 5 5 6 7 7 7 7 7 6 7 9 11 11 11 10 10 11 10 11 11 11 12 12 13 13 13 13 14 14 14 14 14 13 12 12 11 10 10 9 8 7 5 3 3 2 2 2 3 4 5 5 6 7 9 11 11 12 12
6 8 6 4 1 2 3 4 5 7 7 7 6 6 6 5 4 4 5 4 3 5 6 5 7 9 8 7 5 6 7 7 6 7 7 7 8 8 10 11 11 12 11 11 11 10 11 11 11 11 11 12 13 12 12 13 13 13 13 13 12 13 13 13 12 11 10 9 8 5 3 3 1 1 2 3 5 6 7 7 7 7 8 10 12 12
5 5 3 4 3 5 6 5 7 7 7 8 7 6 6 3 2 6 5 4 4 5 7 5 6 8 7 7 8 7 7 6 6 7 7 7 8 8 9 10 11 13 13 12 11 10 11 11 11 11 11 11 11 11 11 11 12 12 12 12 13 13 13 15 15 13 12 10 9 7 6 5 3 3 4 4 4 6 8 9 9 7 8 8 10 12
7 0 5 2 4 7 8 7 8 8 7 9 9 7 7 4 5 7 2 1 5 7 8 8 7 8 8 9 8 7 7 8 8 9 9 8 8 9 9 10 11 12 12 12 11 10 11 11 11 11 11 10 10 11 11 10 11 12 12 12 12 13 13 15 16 15 14 12 11 10 8 7 6 5 5 5 6 7 9 9 10 11 11 10 10 11
8 1 2 5 6 7 8 7 9 9 7 8 10 10 10 8 7 8 6 4 6 7 7 6 7 6 6 8 8 7 8 9 10 10 11 11 10 10 10 10 11 11 11 11 11 10 11 11 11 11 11 10 11 11 11 11 12 12 12 11 11 11 12 13 15 15 14 13 12 11 9 9 9 8 7 8 9 10 10 9 10 13 14 13 11 11
5 1 3 7 8 9 9 8 9 9 9 7 6 9 10 10 8 9 9 6 7 5 4 3 7 7 3 7 8 7 7 9 10 10 11 11 11 11 11 11 11 11 11 11 11 11 11 11 11 11 11 11 12 12 12 12 11 11 11 11 10 10 11 11 12 12 11 10 10 9 8 7 7 8 9 10 10 11 11 11 11 12 14 14 13 13
3 4 5 8 9 9 8 8 8 9 10 5 2 4 8 9 10 10 9 8 8 7 3 6 9 8 7 7 5 6 7 9 10 11 12 12 12 13 13 12 13 13 12 11 11 11 11 12 11 11 12 13 13 13 12 12 11 10 10 9 10 9 10 9 9 10 9 9 8 7 6 5 5 6 9 10 11 11 11 12 11 11 12 12 13 13
1 4 5 7 9 9 9 6 5 9 9 1 5 1 6 7 8 9 9 8 8 9 8 8 8 7 8 6 4 6 9 10 10 12 12 13 13 14 14 14 14 13 13 12 11 12 12 12 12 12 14 14 14 13 11 11 10 10 9 8 9 8 8 8 8 8 8 7 6 6 6 5 5 6 7 9 10 11 12 12 12 11 11 11 11 12
2 1 1 3 6 6 5 1 1 7 6 2 4 2 3 5 7 7 8 8 8 8 9 10 8 7 7 6 4 5 7 9 9 10 11 12 13 14 14 14 15 13 12 12 12 12 13 13 13 13 15 14 12 11 10 10 9 8 7 7 7 7 7 6 6 6 6 6 6 5 5 5 5 6 7 7 8 9 11 12 13 12 11 11 11 11
1 3 1 3 5 5 3 4 1 4 2 2 4 5 5 6 6 6 6 7 7 9 10 11 9 7 7 6 3 3 3 5 5 6 7 10 12 14 14 14 15 14 12 12 12 13 14 14 13 13 14 13 11 10 9 9 8 7 7 6 6 6 5 5 5 6 6 5 5 5 5 5 6 6 6 7 8 8 9 11 12 12 12 12 12 12
6 6 4 4 3 4 3 2 2 2 3 5 6 7 6 6 5 6 7 6 7 9 7 5 5 7 8 5 3 1 1 3 5 5 4 7 11 13 13 14 15 14 13 13 12 13 14 13 13 13 13 12 10 9 8 8 8 7 6 6 6 5 4 4 4 5 6 5 5 6 6 6 6 7 7 8 8 8 9 9 10 11 12 13 13 12
6 6 5 4 4 5 7 5 4 4 6 7 7 7 7 6 5 6 7 6 8 8 3 1 2 6 8 8 7 5 3 3 4 4 4 4 7 11 14 14 14 14 14 13 12 12 12 12 13 13 12 11 10 9 9 8 8 7 6 5 5 4 3 2 2 3 4 5 6 6 6 7 7 8 8 9 9 9 9 9 10 11 11 12 13 13
4 3 6 7 5 5 7 7 5 5 7 8 8 7 7 7 7 7 7 6 8 7 2 2 2 6 8 7 4 3 3 3 3 4 4 3 4 6 11 14 13 14 15 13 13 12 12 12 13 13 12 11 10 10 9 9 8 7 6 5 4 4 3 2 1 2 3 4 5 6 7 7 8 8 9 9 9 9 10 10 11 11 11 12 13 13
6 3 5 5 3 5 8 7 5 5 6 9 8 7 8 7 7 7 6 6 7 6 2 4 3 6 5 1 2 1 1 1 2 4 4 3 4 4 7 11 13 14 14 13 13 13 12 13 13 12 12 11 11 11 10 9 8 7 6 5 4 3 2 1 0 1 3 4 5 6 7 8 8 9 10 10 10 10 11 12 12 12 13 13 13 14
7 5 3 3 2 3 4 3 4 7 7 5 6 8 8 7 7 6 5 5 6 7 6 5 5 5 4 2 3 4 4 4 4 4 5 6 6 6 6 9 11 12 13 13 12 12 12 13 13 13 13 12 11 11 11 10 9 7 6 5 4 3 2 1 1 2 3 4 5 6 8 9 9 10 11 11 11 11 12 13 13 14 14 14 14 14
6 4 6 6 3 2 1 2 2 6 5 2 5 8 5 4 7 7 5 2 3 8 8 7 7 7 7 5 3 3 5 5 6 6 6 5 5 7 8 8 10 12 13 13 13 12 13 14 14 14 13 13 12 12 12 11 10 8 6 5 4 3 2 2 2 3 4 5 6 6 7 9 10 11 12 12 12 13 13 14 14 15 15 16 16 16
5 4 4 6 4 4 2 1 1 2 5 3 4 4 1 2 6 6 6 4 5 9 8 8 10 9 8 4 3 4 5 4 4 3 4 4 5 8 8 9 10 11 12 13 13 13 13 15 15 15 14 14 14 14 13 13 11 9 7 6 5 4 3 3 4 5 5 6 6 7 8 9 10 11 12 13 13 13 14 15 15 15 16 17 17 17
5 6 4 4 3 3 3 4 2 1 3 5 4 3 2 4 6 5 6 7 8 9 7 9 12 9 7 6 3 3 4 3 3 2 2 4 5 5 7 8 10 11 11 12 13 12 12 14 17 17 16 16 16 15 14 13 12 10 8 7 5 5 5 5 5 5 6 6 7 8 9 10 10 11 12 12 13 14 15 15 15 16 16 17 17 18
4 4 1 2 2 2 3 6 6 3 1 3 4 4 5 4 5 5 5 6 7 8 7 9 10 7 5 5 3 3 3 3 3 2 3 3 2 3 4 5 8 9 10 11 12 12 12 15 17 17 17 17 17 17 15 14 13 12 9 8 7 7 6 6 6 6 6 7 8 9 10 10 11 12 12 12 13 14 15 15 15 16 16 17 17 17
1 1 2 1 2 4 5 5 5 4 2 2 4 5 6 5 5 5 6 7 7 8 7 8 9 7 3 1 2 4 3 2 4 4 4 4 4 4 4 4 5 7 10 11 12 12 12 14 16 16 16 16 16 17 17 15 14 13 10 9 9 8 7 6 6 6 6 7 8 9 10 11 12 12 12 12 14 14 14 14 15 16 16 17 17 17
2 3 6 6 5 7 7 2 2 4 4 5 5 5 6 6 6 7 9 9 8 9 9 8 9 7 2 1 2 4 2 1 3 4 4 4 5 5 5 5 5 6 8 10 11 12 11 13 16 15 15 15 15 16 17 16 15 13 11 10 9 9 7 6 6 6 6 7 7 9 11 12 12 12 12 14 15 14 13 14 15 16 16 17 17 17
4 5 7 9 8 9 8 2 2 3 6 7 7 7 7 7 8 8 8 8 7 9 9 9 10 8 2 1 4 3 2 2 2 3 5 5 4 5 5 6 5 6 7 8 9 10 10 13 15 15 15 15 15 16 16 15 14 12 11 10 9 8 7 6 6 6 6 7 7 9 11 12 12 12 13 15 14 13 14 14 15 15 15 15 16 16
3 5 6 8 7 8 9 5 3 3 6 7 7 8 8 9 9 9 8 7 6 8 8 7 10 7 1 2 3 3 3 3 3 3 5 6 6 6 7 6 6 6 6 7 8 8 10 12 14 14 14 15 15 15 15 15 13 12 11 10 9 7 6 5 5 5 6 7 8 10 11 11 12 13 13 14 14 14 14 15 15 14 14 15 15 15
2 3 3 6 6 5 7 7 6 6 6 7 7 7 8 10 11 10 8 7 7 11 11 9 10 8 2 4 3 4 4 6 5 5 6 7 7 8 7 7 6 5 6 8 8 9 10 11 12 13 14 14 14 14 14 14 13 12 11 10 8 6 5 5 5 5 6 7 9 10 10 11 12 13 13 13 14 14 14 14 14 14 14 14 15 16
1 2 3 4 6 6 5 3 2 2 3 5 6 6 7 9 11 9 7 8 9 12 13 11 10 10 7 6 7 6 8 9 8 8 8 7 7 8 8 7 6 5 5 7 8 9 10 10 11 13 13 12 11 12 13 13 12 11 10 8 6 6 6 5 5 6 7 8 10 10 11 11 12 12 13 13 13 13 13 13 13 14 15 15 16 17
2 3 6 8 8 8 7 3 1 4 5 6 6 6 7 7 8 8 7 8 9 9 10 11 11 14 15 13 11 11 11 10 10 12 11 9 8 8 8 7 6 5 5 5 6 8 9 10 11 12 11 10 10 11 11 11 11 10 8 6 5 5 5 5 6 7 8 10 11 11 12 13 13 13 13 12 12 12 12 13 14 15 15 16 17 18
2 4 7 10 12 12 13 9 4 5 9 11 10 9 9 8 8 9 10 10 9 8 9 10 11 13 14 13 13 13 12 11 12 13 12 10 9 8 7 7 7 6 5 5 7 8 10 10 10 10 10 10 10 11 10 9 9 7 6 5 5 5 5 5 6 8 10 11 12 12 12 13 13 13 13 13 13 13 13 14 15 16 17 18 19 20
2 4 5 7 10 12 12 11 8 7 10 11 12 12 11 10 11 13 14 14 12 10 10 11 13 14 12 12 14 14 13 14 14 13 11 10 9 8 7 7 8 7 7 7 8 9 9 10 9 9 10 10 10 11 9 9 8 6 5 5 5 4 5 5 7 10 11 12 12 12 13 13 13 13 13 13 14 14 14 15 17 18 19 20 20 20
2 3 4 7 10 11 11 10 8 8 10 11 12 14 13 14 15 15 16 17 16 16 16 16 18 16 13 13 15 15 15 14 12 11 10 9 8 7 7 7 8 8 8 7 7 7 8 8 8 9 10 10 10 10 9 8 7 6 5 4 4 4 5 6 8 10 12 12 11 12 13 13 13 14 14 14 14 15 15 17 19 21 20 20 20 20
2 2 4 6 8 10 10 9 8 9 10 12 13 15 15 15 16 16 16 16 16 17 18 17 17 15 12 12 12 12 11 10 8 8 8 8 8 8 8 8 7 6 6 6 5 5 6 7 7 8 10 10 11 9 8 7 6 5 4 3 4 4 5 7 9 10 11 11 11 11 12 13 13 14 14 14 15 16 17 19 21 21 20 20 20 20
4 3 5 5 7 8 8 8 9 10 11 13 16 18 17 16 14 14 14 14 14 14 14 13 12 11 9 8 8 8 7 6 7 7 7 7 8 8 8 7 5 4 3 3 3 4 5 6 7 8 9 10 10 9 8 7 6 5 4 3 3 3 5 7 9 10 10 10 11 11 12 13 13 14 14 15 16 16 18 20 20 20 20 20 20 20
4 4 4 5 6 7 8 8 7 9 10 10 9 10 12 12 12 13 12 13 14 12 10 10 9 8 7 6 6 7 7 7 7 6 6 7 7 7 7 6 4 3 2 2 2 3 4 5 6 8 9 9 8 8 8 7 5 4 3 2 2 4 6 8 9 9 9 10 11 12 12 12 13 14 14 15 16 17 18 20 20 20 20 20 20 20
6 6 5 4 4 7 8 7 6 8 9 5 2 1 4 7 8 10 10 10 11 10 9 10 10 9 8 7 7 8 7 7 7 7 6 6 6 6 5 4 3 2 1 1 1 2 3 5 6 8 9 8 8 8 7 6 5 4 3 1 2 4 6 8 8 9 9 10 12 12 12 12 13 13 14 15 15 16 19 20 19 20 20 20 20 20
7 7 6 4 4 6 7 6 6 7 4 1 2 2 3 6 7 9 11 10 8 8 9 10 10 9 8 7 6 6 6 7 7 6 4 4 4 5 4 3 2 2 1 1 2 3 4 6 8 9 9 9 9 9 8 7 6 4 3 1 2 4 6 7 8 8 9 11 12 12 12 12 12 13 13 14 15 17 19 20 20 20 20 20 20 20
8 7 5 4 5 5 5 4 5 5 3 3 3 2 3 5 6 7 10 7 5 5 6 6 6 5 5 5 5 5 5 6 5 1 4 5 5 5 5 4 4 4 3 1 2 4 6 8 9 10 10 10 9 9 8 7 6 4 2 2 3 5 6 7 7 9 10 10 11 11 11 11 12 12 13 13 15 18 19 19 20 20 20 20 20 20
7 6 4 4 4 3 5 6 6 8 8 5 2 3 3 2 2 4 5 2 2 3 4 3 3 4 5 5 5 6 7 7 5 1 6 7 7 7 6 6 6 5 4 1 3 5 7 8 9 10 10 10 10 9 8 7 5 3 2 2 3 5 6 6 7 9 9 10 11 11 10 11 11 11 13 14 17 19 19 19 19 19 19 20 21 20
5 5 3 3 3 3 5 6 6 8 6 0 4 4 2 2 4 4 4 1 3 6 6 4 4 5 6 6 7 8 7 7 5 1 5 6 7 7 7 6 5 5 4 1 3 6 8 8 9 10 10 10 10 9 8 7 5 4 3 3 4 5 5 7 8 8 9 10 10 10 9 9 10 12 14 16 17 18 18 18 18 18 19 20 20 20
4 4 3 3 4 4 6 6 5 6 2 3 4 3 2 1 1 2 3 2 2 5 6 5 5 5 6 7 8 8 7 6 4 2 4 6 7 6 7 6 5 5 4 3 3 5 7 9 9 10 10 10 10 10 9 7 6 5 4 4 4 4 5 7 8 8 9 10 9 9 9 9 10 12 14 15 16 16 17 18 18 18 19 19 20 20
3 3 4 5 6 6 6 6 5 4 1 3 2 1 1 1 3 5 4 1 2 4 4 4 5 7 7 8 7 6 6 6 5 4 5 8 8 6 6 6 6 4 3 4 5 5 6 8 10 10 11 11 10 10 10 8 7 6 5 4 4 5 5 6 7 8 8 9 8 8 9 9 10 12 13 13 14 15 16 17 18 19 19 19 19 19
4 3 4 6 7 6 7 7 6 2 2 5 5 4 3 2 3 4 2 1 3 6 6 5 7 9 9 8 6 5 6 7 8 8 9 9 9 8 7 7 6 5 5 4 3 4 7 9 11 11 11 11 11 11 10 8 7 6 5 5 5 5 5 5 6 7 8 8 8 8 9 9 10 12 12 12 13 15 16 16 17 19 19 19 19 19
5 4 5 6 6 5 5 7 7 3 2 5 5 4 2 3 3 1 1 3 5 6 7 6 7 8 9 8 7 7 8 9 9 10 11 10 10 9 9 9 8 5 3 3 4 6 9 11 11 12 11 11 12 11 10 9 8 7 6 6 6 5 4 4 6 7 7 7 7 8 8 8 10 11 11 12 13 15 15 15 16 18 18 18 19 19
4 5 5 4 4 4 5 6 6 2 1 0 2 2 3 4 4 3 4 6 7 8 9 9 8 8 9 8 8 9 11 11 11 11 12 12 11 11 10 11 11 8 6 8 9 11 12 13 13 13 12 12 12 11 10 10 9 7 7 7 6 4 4 4 5 6 7 6 6 7 7 9 10 10 10 12 13 14 14 15 16 17 17 18 18 19
4 4 4 3 2 3 5 5 3 2 2 4 5 5 6 6 5 6 7 8 9 10 10 9 9 9 9 9 11 12 12 12 12 12 12 12 12 12 11 12 13 12 10 11 12 12 15 15 14 13 12 12 12 11 11 10 9 8 7 7 5 5 5 5 5 6 6 6 6 7 7 8 10 10 10 12 12 12 13 14 15 15 16 17 18 18
2 1 3 4 3 4 6 8 9 9 8 6 5 7 9 9 9 9 10 11 10 9 9 8 8 9 10 11 12 13 12 13 13 13 13 13 13 13 13 13 15 15 12 11 11 11 14 15 14 14 13 13 13 12 11 10 9 9 8 7 6 6 6 5 5 6 6 6 7 7 7 8 9 9 11 12 11 10 10 12 13 14 15 17 17 17
3 2 2 4 5 7 8 10 11 11 10 9 8 9 10 10 10 10 11 10 10 9 9 9 10 10 11 12 13 13 13 14 14 14 14 14 14 14 14 14 15 16 11 8 8 9 12 14 14 14 14 14 14 13 12 10 9 9 8 8 7 7 6 5 5 6 6 6 7 7 7 8 9 9 10 10 10 9 9 9 11 13 14 16 17 17
4 1 3 6 7 8 7 7 9 11 11 11 11 10 9 9 8 8 8 9 9 10 11 11 12 13 12 13 13 14 14 15 15 15 13 13 14 14 13 13 14 13 8 7 8 10 12 13 14 14 14 14 14 13 12 11 10 9 9 8 8 7 6 6 6 5 5 6 7 7 8 8 8 8 9 8 8 8 8 8 10 12 13 14 16 17
3 2 3 7 8 9 10 11 13 14 13 11 9 7 7 8 9 10 10 11 12 13 13 13 13 13 13 13 14 14 14 14 14 14 13 13 13 12 10 11 13 11 6 7 8 10 12 14 14 15 14 14 14 13 12 11 11 10 10 9 9 7 6 6 6 6 6 6 6 7 8 7 7 7 8 8 7 8 7 8 10 10 11 11 13 15
3 2 4 6 8 10 12 12 11 12 11 9 7 7 8 9 11 13 14 14 14 15 14 14 14 13 13 14 13 13 14 13 13 14 14 12 11 10 9 10 12 9 5 6 8 11 12 13 14 15 14 13 13 13 12 12 11 11 11 10 9 8 7 6 6 6 5 6 6 7 7 7 7 7 7 7 8 7 6 6 8 9 8 8 10 12
5 5 4 4 6 8 9 9 10 10 9 8 9 11 11 11 13 15 15 15 15 15 14 14 14 14 14 14 13 12 13 13 13 14 13 12 10 10 10 11 11 8 4 6 8 10 12 12 13 14 14 13 12 12 12 12 12 12 12 11 10 9 8 7 6 6 5 5 5 6 7 7 6 6 7 7 7 7 6 4 4 6 7 7 9 11
6 5 3 4 7 9 11 12 11 10 10 10 12 14 13 12 14 16 16 15 15 15 14 14 14 13 13 13 13 13 12 12 13 14 13 12 12 12 12 10 8 7 5 6 8 9 11 12 12 14 14 13 12 12 12 12 12 12 12 12 11 10 8 7 6 6 5 5 3 4 6 7 6 6 7 7 7 7 7 4 2 2 5 8 11 13
Wind_Direction
231 230 215 225 214 195 193 222 270 335 256 240 233 238 245 246 246 235 221 93 207 268 253 243 256 250 242 231 172 156 196 217 217 204 204 189 159 152 142 134 129 122 121 122 116 108 103 99 97 94 93 93 91 91 89 85 80 76 76 75 70 65 64 64 62 64 66 63 62 60 53 36 1 350 331 315 310 302 298 293 287 280 272 270 271 266
219 244 229 222 225 177 177 209 227 227 222 228 232 231 231 237 247 246 227 189 194 258 253 226 245 245 234 234 187 177 216 223 223 216 208 188 160 153 144 136 133 126 126 128 121 117 115 110 107 102 100 99 94 90 87 85 83 80 80 79 74 71 69 67 61 54 50 42 39 42 50 46 15 340 328 311 303 299 294 297 297 290 282 278 275 269
213 240 228 190 162 163 181 199 215 222 223 227 230 240 245 230 248 253 225 216 207 247 255 223 244 250 224 221 213 203 220 221 218 217 205 186 170 160 151 144 141 138 139 138 132 131 128 120 114 107 101 97 94 94 92 91 92 88 87 86 84 81 77 74 71 63 55 42 31 23 19 24 20 269 301 303 291 289 289 294 299 298 295 289 284 279
221 223 170 134 159 201 202 200 215 222 222 231 233 239 246 229 269 255 198 170 202 244 276 276 263 260 227 213 216 206 208 198 193 203 196 187 181 167 158 155 151 149 147 145 143 138 133 125 117 112 107 106 105 104 104 101 100 95 94 94 89 85 80 76 73 67 60 50 38 28 18 10 359 329 322 314 298 299 303 303 300 296 299 298 293 289
261 116 98 147 203 218 221 203 212 226 222 224 232 247 260 253 251 264 261 177 235 231 250 267 268 259 234 224 218 182 182 192 189 194 192 186 179 163 158 160 158 157 153 150 148 142 140 134 127 126 124 123 120 116 114 111 105 103 101 98 92 87 81 75 71 68 62 53 41 30 19 9 1 353 347 340 330 325 321 314 305 296 295 294 291 289
265 49 122 226 218 223 236 222 216 229 237 226 221 233 260 269 255 262 266 252 259 237 210 235 267 265 224 224 228 180 178 197 190 193 196 185 177 167 164 165 164 161 157 154 151 148 146 143 139 139 138 133 127 122 120 115 110 109 105 102 98 90 83 75 69 66 61 55 46 35 23 10 358 352 351 348 336 330 327 321 313 306 301 294 286 284
255 218 220 242 229 223 235 238 222 220 246 250 215 214 240 262 260 261 258 238 263 268 161 194 271 283 242 229 232 202 202 207 191 197 201 188 184 182 175 171 169 165 163 160 157 155 151 150 152 150 146 139 131 128 124 120 117 113 107 103 99 91 84 76 68 63 60 56 49 42 32 13 359 345 339 338 331 326 322 318 318 314 309 300 290 284
225 234 222 230 233 229 231 236 210 203 241 264 92 196 229 247 250 251 253 243 261 275 236 230 254 272 272 257 230 201 227 229 206 208 205 194 193 190 182 176 175 172 167 164 163 161 159 160 160 153 148 143 137 133 128 124 120 112 105 100 95 89 83 76 68 64 60 55 48 43 33 13 358 336 326 328 327 324 319 314 314 313 311 307 298 289
131 253 230 225 230 228 233 239 187 198 238 290 74 237 240 246 255 254 255 252 263 273 264 248 238 250 267 258 191 192 239 244 224 221 213 202 197 191 186 180 178 176 172 170 168 166 167 167 164 155 150 144 135 129 126 126 120 111 105 97 91 86 78 72 68 61 55 53 46 37 25 7 352 333 321 319 319 320 319 315 312 310 308 308 304 297
60 321 319 266 244 237 245 314 144 216 244 71 105 216 229 233 251 252 257 264 268 266 266 260 241 245 272 265 208 204 246 252 234 228 221 206 196 190 187 182 179 177 176 175 171 170 172 168 165 160 149 137 126 125 128 126 122 116 112 104 95 87 77 68 62 56 49 45 39 27 12 355 343 335 323 314 312 313 315 315 314 313 309 307 306 303
183 119 60 270 263 289 346 53 56 242 249 121 178 214 212 219 238 245 254 268 270 259 260 262 251 253 276 276 250 218 251 273 259 239 224 208 196 190 186 183 181 180 179 178 173 171 170 165 167 163 143 130 126 133 137 132 129 127 123 118 105 93 84 68 54 45 38 32 25 14 358 342 334 329 321 316 313 309 309 310 311 313 311 309 306 304
217 195 206 207 217 266 259 172 141 183 204 210 222 231 228 225 231 245 245 243 255 261 262 258 245 252 262 263 266 261 227 256 268 261 237 211 198 190 186 185 184 184 183 181 177 172 167 166 171 160 138 133 141 149 150 145 144 142 138 136 122 108 97 74 53 38 29 21 13 0 347 337 329 322 318 314 311 310 307 303 304 307 308 308 306 304
234 214 196 173 173 223 239 221 174 175 207 224 232 236 237 235 231 241 243 232 246 260 259 144 226 250 258 263 269 280 281 258 260 269 270 246 212 195 190 188 185 185 185 184 182 175 171 173 171 157 144 149 160 165 163 161 160 156 153 152 141 127 117 91 61 32 17 8 1 351 340 334 327 320 315 311 309 310 309 305 302 302 300 301 302 301
246 182 183 196 180 190 230 237 213 200 208 219 231 232 232 238 240 244 247 244 252 260 223 141 254 260 258 269 278 301 329 319 283 268 271 289 268 220 198 191 188 187 186 186 185 181 179 178 169 158 156 163 172 175 173 173 173 170 164 166 162 147 141 134 91 18 360 353 347 341 336 330 325 321 316 311 310 308 308 307 304 300 297 294 293 293
265 232 188 197 159 165 212 247 282 282 239 224 233 239 239 245 249 253 256 258 267 275 227 168 221 264 265 338 73 80 10 302 265 258 250 250 257 248 212 195 191 190 189 188 188 186 182 176 167 161 166 172 176 178 181 185 185 182 178 179 180 169 161 170 211 325 339 339 333 330 328 325 322 320 315 310 308 306 305 305 302 299 296 292 290 289
267 264 121 106 89 153 204 259 292 280 259 232 236 241 243 249 254 263 279 294 298 291 270 228 235 267 281 263 213 232 252 241 239 239 239 239 229 226 219 203 197 195 193 191 189 187 180 174 170 169 172 177 179 181 187 195 194 191 192 193 196 196 196 216 284 318 325 326 323 321 320 319 317 315 313 310 307 305 304 304 302 298 296 295 293 291
267 256 113 125 150 112 347 308 241 258 264 202 223 238 249 268 263 262 269 303 302 276 268 257 256 263 270 261 213 230 263 245 231 228 230 240 228 218 217 211 205 201 197 194 190 185 179 176 177 178 181 183 185 188 193 198 198 195 200 208 212 221 245 269 300 316 317 316 317 316 316 315 314 312 310 308 306 304 303 304 303 302 301 301 299 298
304 271 150 168 178 107 63 269 156 275 281 250 233 248 273 259 257 260 262 253 252 262 263 258 262 266 269 262 161 188 242 236 226 225 211 211 214 218 218 216 215 208 202 198 193 187 181 182 184 185 188 191 192 195 198 200 199 196 201 214 229 248 275 290 300 308 311 313 311 313 314 310 309 308 307 306 304 304 303 303 303 303 303 303 302 300
318 269 196 170 194 133 146 218 183 114 288 279 287 303 259 243 240 233 249 258 257 261 265 262 262 262 263 263 235 229 255 259 247 243 236 217 204 216 222 218 216 209 204 201 196 192 187 187 187 187 192 196 196 199 202 200 199 198 201 212 232 251 267 282 293 298 303 309 308 308 310 308 307 307 306 305 303 304 303 301 300 300 300 301 300 298
340 284 207 87 3 313 230 233 232 199 244 294 293 266 242 254 264 245 240 255 262 263 268 274 268 259 257 258 267 284 291 292 285 279 275 266 231 234 240 227 217 208 205 205 201 198 192 189 187 187 192 198 197 200 202 200 199 199 201 211 232 245 254 264 275 285 293 302 304 304 306 307 308 307 305 304 305 304 301 298 298 297 297 298 297 295
3 250 244 272 339 294 254 239 253 245 226 265 279 261 248 255 266 263 252 244 253 261 267 276 272 268 273 225 255 299 307 306 307 300 284 287 284 271 267 257 234 212 208 211 209 204 194 188 187 186 192 198 200 200 199 198 198 199 202 214 230 240 248 257 262 272 283 292 297 300 305 308 309 308 307 307 306 303 299 297 296 294 295 296 294 293
259 226 245 256 256 256 250 231 262 265 247 246 255 255 254 260 259 258 255 247 247 256 261 266 267 276 304 155 265 297 298 281 299 302 295 290 287 285 277 266 253 229 218 216 214 209 196 186 185 186 189 195 199 198 196 196 198 199 205 215 228 237 246 257 263 271 281 287 290 296 305 309 310 310 310 311 308 302 298 296 293 292 294 293 292 292
309 263 254 259 257 260 264 225 143 243 254 252 254 255 255 255 250 248 252 256 259 266 272 268 264 276 333 175 261 265 246 269 290 297 297 297 300 300 291 279 261 243 231 219 213 208 197 186 183 186 190 193 197 199 196 197 199 201 207 216 227 236 247 260 268 277 285 289 292 299 306 309 310 312 313 313 308 301 299 297 294 293 292 291 292 292
311 267 257 264 266 266 257 230 182 204 231 240 243 242 245 246 249 256 263 269 269 266 270 264 259 264 103 113 263 243 225 256 254 267 290 300 305 297 290 289 274 250 233 217 206 199 193 186 180 185 194 196 199 198 196 198 199 200 208 220 230 239 252 263 270 281 290 295 298 304 309 309 311 313 311 308 305 301 299 297 294 293 291 291 292 292
306 271 260 265 267 257 240 221 204 195 206 236 245 230 233 242 248 258 264 263 257 253 254 257 262 262 166 142 208 238 260 267 259 267 282 289 294 291 288 289 281 262 238 220 207 198 195 190 185 191 199 200 199 193 191 196 199 203 211 220 233 248 263 270 277 290 297 301 304 309 312 312 313 313 308 305 304 302 300 296 293 292 291 293 294 295
253 246 224 245 254 259 260 221 202 218 207 229 241 232 235 242 243 248 252 248 247 251 253 253 260 268 259 223 226 251 275 277 279 287 287 282 284 287 288 286 279 265 246 231 217 206 202 199 196 199 199 197 192 187 188 192 198 208 216 221 234 255 272 282 291 299 304 310 313 316 318 318 318 315 310 307 306 303 299 295 292 291 291 292 295 297
234 233 221 237 249 264 280 287 7 338 301 262 247 234 235 246 252 253 251 248 250 256 256 249 251 268 276 272 269 277 281 283 290 293 290 288 287 286 285 282 277 264 246 235 222 211 208 206 202 197 191 184 182 183 187 193 201 212 219 228 246 264 281 292 299 306 314 320 322 323 324 324 322 316 311 307 304 301 298 295 293 293 293 294 296 297
260 255 236 238 246 260 276 280 278 277 271 271 272 260 250 256 265 260 254 258 266 265 258 252 252 264 278 285 290 294 295 293 292 292 296 302 299 290 282 276 268 258 245 231 217 212 212 208 199 189 177 172 177 181 186 196 205 212 222 239 258 275 289 296 304 314 322 326 327 326 327 325 321 315 311 308 305 302 300 299 300 299 300 299 298 297
266 268 265 259 260 266 273 278 273 257 255 260 264 263 258 249 247 248 250 258 265 261 259 269 274 275 282 289 293 297 298 293 292 296 303 301 291 284 277 272 270 264 252 238 223 215 214 208 194 177 168 170 175 177 184 197 203 207 221 240 262 281 294 302 312 321 327 328 327 327 326 323 319 315 312 311 310 309 306 307 308 306 304 302 299 297
257 267 287 288 283 281 277 275 275 269 267 266 263 264 261 250 243 243 247 252 255 257 261 269 275 278 282 288 293 295 291 287 286 293 297 293 292 297 291 282 280 276 266 252 236 221 212 203 185 169 165 170 174 177 186 197 202 208 219 238 262 282 297 309 318 324 326 325 324 325 324 322 319 316 316 316 315 314 313 312 311 307 304 301 298 296
206 272 302 300 290 283 278 276 272 269 271 273 272 266 262 259 255 249 248 248 248 253 259 264 270 276 280 286 291 293 290 284 278 282 291 299 307 309 303 296 291 284 277 266 249 227 202 187 176 167 166 168 171 178 187 192 198 208 222 241 264 287 306 317 322 323 322 321 322 322 322 322 321 319 319 320 319 318 317 316 313 308 304 302 299 296
204 275 300 296 287 282 282 283 278 277 276 271 267 261 256 256 257 253 250 246 244 249 255 258 263 269 277 289 296 300 300 290 280 285 293 299 303 301 299 302 303 297 294 282 254 221 192 178 171 165 163 164 167 176 183 187 196 207 217 235 264 299 315 320 320 318 318 320 321 322 322 322 322 321 322 323 322 322 322 320 316 312 309 305 302 299
251 277 291 286 283 282 287 296 296 290 280 269 260 254 251 253 257 258 255 247 243 244 249 254 258 265 280 297 301 301 302 294 292 297 298 296 296 294 294 303 311 322 331 306 248 206 185 171 163 158 157 162 170 178 181 185 194 200 201 230 283 309 316 317 316 315 318 321 322 323 323 322 321 322 324 326 325 327 326 323 319 316 313 308 306 303
268 270 276 281 277 277 290 310 306 281 273 285 350 327 271 273 269 265 264 254 245 240 245 255 264 273 282 290 296 297 300 305 308 307 301 292 289 290 297 310 318 332 360 340 212 187 170 159 155 153 155 163 168 168 170 174 179 177 178 225 292 310 313 313 313 315 318 321 323 323 322 323 323 324 325 327 328 330 328 324 320 318 315 311 308 306
268 267 270 272 263 275 294 302 282 270 269 318 25 37 322 301 293 281 276 270 261 252 251 257 266 278 287 299 309 307 309 313 310 309 314 312 302 305 308 313 330 356 28 99 155 159 156 153 153 153 157 163 161 161 166 170 168 170 180 230 298 306 307 310 313 315 317 319 321 322 322 324 323 324 327 328 330 332 329 324 321 319 316 313 310 307
262 264 265 263 255 265 277 256 256 289 310 246 239 40 351 294 288 281 270 261 261 267 263 264 278 300 315 327 332 329 329 315 297 343 37 28 18 359 346 350 3 12 23 59 146 158 158 159 160 160 162 164 165 169 173 169 166 175 192 237 293 299 303 309 309 312 316 318 319 321 323 324 322 324 328 330 332 334 331 326 323 321 319 316 312 310
259 264 255 248 240 246 269 262 264 287 292 264 216 64 22 322 353 328 285 245 68 10 326 308 334 360 355 351 346 339 328 303 276 96 65 46 35 19 2 359 1 358 2 43 155 162 162 163 163 163 165 168 171 174 169 162 165 179 203 247 282 293 299 303 304 309 315 315 318 322 322 320 322 327 331 333 335 335 332 328 326 323 322 319 316 315
232 246 244 247 229 226 266 278 276 280 290 18 118 109 84 66 49 9 311 261 65 35 11 358 9 8 357 350 343 334 320 293 277 91 70 42 29 15 355 350 354 348 339 305 181 169 165 165 165 166 168 170 171 168 161 160 168 184 213 244 271 284 290 297 303 310 313 313 317 320 319 321 327 331 332 333 333 333 332 330 328 325 324 321 318 316
216 219 217 241 250 250 262 272 277 280 297 101 128 142 114 64 18 313 266 236 55 28 9 353 351 349 342 338 332 327 314 292 286 66 50 0 351 349 334 330 338 346 339 302 244 202 182 174 172 174 175 175 172 166 162 164 173 195 224 242 257 272 282 294 303 307 309 311 315 318 321 326 329 329 328 330 331 332 331 330 328 327 325 322 319 317
256 220 213 236 248 253 259 266 274 282 10 65 59 74 85 336 289 272 254 216 33 356 332 323 328 327 327 326 321 312 304 296 309 352 353 329 321 320 317 316 321 326 311 273 249 229 203 186 183 186 185 183 176 167 166 172 183 202 226 239 247 261 276 292 301 303 304 308 313 319 322 325 326 324 324 326 329 330 330 329 329 329 328 325 322 320
287 256 230 247 265 263 258 267 274 269 77 53 29 20 6 316 269 254 258 326 322 318 321 323 324 321 316 315 308 298 300 304 311 318 318 314 313 314 315 314 305 290 281 267 234 225 225 212 203 202 197 187 176 169 171 179 191 204 216 227 238 255 272 287 293 295 300 307 314 321 322 322 325 326 323 324 327 328 328 330 329 330 331 329 326 324
306 298 261 263 283 284 273 276 279 281 72 54 31 19 340 305 291 266 279 261 264 291 310 304 298 298 296 296 293 287 293 297 299 301 304 307 309 310 312 313 304 280 241 203 195 222 240 233 217 209 200 184 175 175 177 184 195 205 213 222 234 247 257 268 279 288 298 306 315 321 318 317 325 326 320 321 327 327 326 329 331 332 332 331 329 327
306 301 289 291 309 308 298 288 281 278 130 307 318 305 272 294 318 318 298 279 273 287 295 287 282 284 283 284 286 287 290 292 291 294 297 299 303 306 307 308 305 286 229 211 216 216 219 225 219 207 194 179 176 179 180 186 197 205 212 222 230 233 238 249 267 286 296 304 315 319 309 310 325 331 324 324 328 327 326 329 332 334 335 335 333 331
286 282 302 331 353 315 302 295 298 316 265 243 263 294 298 299 301 292 290 293 291 290 290 288 290 294 290 286 290 292 291 289 289 292 295 295 297 301 302 302 303 292 257 242 243 219 203 210 213 200 188 180 179 180 182 187 196 205 212 220 220 219 230 243 259 280 293 301 313 316 307 310 327 336 334 334 333 327 327 331 334 336 339 339 338 335
255 258 302 296 276 280 283 281 289 300 297 281 274 291 296 293 287 284 285 287 287 286 286 287 291 295 294 291 291 290 288 289 292 293 294 295 296 297 298 297 300 296 276 256 250 223 202 206 205 193 185 183 180 180 183 187 196 205 210 214 212 217 229 237 251 273 289 300 310 315 313 316 323 326 329 334 334 331 333 337 337 339 342 342 341 338
277 249 252 267 287 296 277 264 272 285 294 297 293 291 290 287 285 287 286 284 287 288 287 288 291 293 292 291 290 288 287 291 293 291 292 294 293 294 295 295 298 299 287 256 236 212 203 207 205 193 187 183 181 182 184 187 196 204 207 208 209 218 228 232 245 267 283 296 306 314 316 319 325 327 326 327 328 330 338 344 342 342 344 345 343 341
309 278 245 266 288 299 283 271 284 292 295 300 301 297 294 291 291 295 292 289 291 289 287 288 288 287 288 287 286 287 288 289 290 289 290 291 290 292 293 293 297 297 278 240 223 207 202 207 206 198 191 186 183 183 183 187 196 203 204 205 207 214 225 229 240 261 278 291 304 312 315 319 324 325 324 327 329 328 337 350 349 346 349 349 346 343
356 71 280 283 286 287 284 287 294 294 293 295 295 290 294 300 303 300 294 290 290 289 287 287 285 284 285 285 285 287 288 288 287 287 287 288 291 291 289 290 296 293 262 228 220 208 205 210 208 201 197 192 186 184 185 189 196 200 201 204 206 210 221 227 232 252 275 291 302 311 314 313 314 318 323 332 333 328 337 354 356 356 360 360 354 347
317 249 273 295 293 285 282 287 297 299 294 293 292 291 297 303 302 298 295 293 290 289 288 288 287 287 287 287 288 287 286 286 287 288 288 290 290 288 286 293 299 292 246 214 214 209 212 218 213 205 203 197 188 184 187 190 195 197 199 205 206 208 217 225 227 241 270 288 295 307 312 307 310 321 327 332 334 330 332 343 352 3 11 5 2 1
277 267 279 295 287 283 288 301 312 308 297 296 301 299 297 299 297 294 294 293 292 292 293 292 291 290 287 285 285 286 287 291 293 292 291 288 283 281 284 294 301 294 242 208 212 214 217 221 219 212 207 200 190 186 189 191 195 196 199 203 205 207 214 221 224 233 256 275 289 310 315 308 313 328 330 332 336 336 329 316 328 359 15 18 20 21
256 247 236 258 271 278 288 297 303 297 290 293 298 297 298 301 297 292 292 292 292 294 296 295 293 292 289 285 285 287 291 293 292 290 288 282 278 279 280 286 298 296 256 214 214 222 221 218 218 215 209 202 194 190 191 193 194 196 199 201 202 206 212 218 223 232 246 261 285 316 312 306 316 331 333 334 337 336 337 332 307 346 11 22 31 32